TimeCST,TemperatureF,Dew PointF,Humidity,Sea Level PressureIn,VisibilityMPH,Wind Direction,Wind SpeedMPH,Gust SpeedMPH,PrecipitationIn,Events,Conditions,WindDirDegrees,DateUTC
12:53 AM,66.0,64.0,93,30.02,10.0,SSE,6.9,-,N/A,,Mostly Cloudy,160,2012-11-09 06:53:00
1:53 AM,64.9,63.0,93,30.02,10.0,SSE,5.8,-,N/A,,Scattered Clouds,160,2012-11-09 07:53:00
2:53 AM,64.0,62.1,93,30.00,10.0,SSE,4.6,-,N/A,,Clear,160,2012-11-09 08:53:00
3:42 AM,64.4,62.6,94,30.05,10.0,SSE,3.5,-,N/A,,Mostly Cloudy,160,2012-11-09 09:42:00
3:53 AM,64.9,63.0,93,30.00,10.0,SSE,5.8,-,N/A,,Overcast,150,2012-11-09 09:53:00
4:12 AM,64.4,62.6,94,30.04,10.0,SSE,8.1,-,N/A,,Scattered Clouds,160,2012-11-09 10:12:00
4:53 AM,64.0,63.0,96,29.99,10.0,SSE,8.1,-,N/A,,Partly Cloudy,160,2012-11-09 10:53:00
5:26 AM,64.4,62.6,94,30.04,10.0,SSE,6.9,-,N/A,,Mostly Cloudy,160,2012-11-09 11:26:00
5:53 AM,64.9,63.0,93,30.00,10.0,South,6.9,-,N/A,,Overcast,170,2012-11-09 11:53:00
6:53 AM,64.0,63.0,96,30.02,10.0,South,8.1,-,N/A,,Mostly Cloudy,170,2012-11-09 12:53:00
7:53 AM,66.0,63.0,90,30.03,10.0,SSE,10.4,-,N/A,,Mostly Cloudy,160,2012-11-09 13:53:00
8:53 AM,69.1,64.0,84,30.05,10.0,South,13.8,-,N/A,,Mostly Cloudy,170,2012-11-09 14:53:00
9:53 AM,72.0,64.0,76,30.05,10.0,South,15.0,19.6,N/A,,Overcast,170,2012-11-09 15:53:00
10:53 AM,77.0,62.1,60,30.04,10.0,South,21.9,27.6,N/A,,Mostly Cloudy,170,2012-11-09 16:53:00
11:31 AM,78.8,62.6,57,30.08,10.0,South,18.4,27.6,N/A,,Scattered Clouds,170,2012-11-09 17:31:00
11:53 AM,78.1,62.1,58,30.01,10.0,South,16.1,23.0,N/A,,Scattered Clouds,170,2012-11-09 17:53:00
12:53 PM,81.0,59.0,47,29.98,10.0,SSE,20.7,28.8,N/A,,Partly Cloudy,160,2012-11-09 18:53:00
1:53 PM,82.0,59.0,45,29.95,10.0,South,16.1,24.2,N/A,,Partly Cloudy,180,2012-11-09 19:53:00
2:53 PM,82.0,59.0,45,29.93,10.0,SSE,19.6,29.9,N/A,,Partly Cloudy,150,2012-11-09 20:53:00
3:53 PM,82.0,57.0,42,29.92,10.0,SSE,19.6,27.6,N/A,,Partly Cloudy,150,2012-11-09 21:53:00
4:53 PM,80.1,57.9,47,29.92,10.0,SSE,15.0,25.3,N/A,,Partly Cloudy,150,2012-11-09 22:53:00
5:53 PM,77.0,57.0,50,29.93,10.0,SE,13.8,-,N/A,,Clear,140,2012-11-09 23:53:00
6:53 PM,73.0,59.0,61,29.95,10.0,SE,13.8,-,N/A,,Clear,130,2012-11-10 00:53:00
7:53 PM,71.1,60.1,68,29.97,10.0,SE,17.3,24.2,N/A,,Clear,140,2012-11-10 01:53:00
8:53 PM,69.1,62.1,78,30.00,10.0,SE,11.5,-,N/A,,Clear,140,2012-11-10 02:53:00
9:53 PM,69.1,63.0,81,30.00,10.0,SE,11.5,-,N/A,,Clear,140,2012-11-10 03:53:00
10:53 PM,66.9,63.0,87,30.01,10.0,SE,12.7,-,N/A,,Clear,140,2012-11-10 04:53:00
11:53 PM,64.9,63.0,93,30.00,10.0,SE,6.9,-,N/A,,Clear,140,2012-11-10 05:53:00